DW1437 Weather Reports


time (UTC)temp
C
wind
direction
speed
KPH
gust
KPH
rain 1hr
cm
rain 24hr
cm
rain mn
cm
humidity
%
barometer
mb
20260505031708 7 42 0.0 0.0 0.00 0.00 0.00 93 1014.5
20260505030727 7 42 0.0 0.0 0.00 0.00 0.00 93 1014.5
20260505025748 7 42 0.0 0.0 0.00 0.00 0.00 93 1014.4
20260505024715 7 42 0.0 0.0 0.00 0.00 0.00 93 1014.4
20260505022523 7 50 0.0 0.0 0.00 0.00 0.00 93 1014.6
20260505021527 7 50 0.0 0.0 0.00 0.00 0.00 92 1014.5
20260505020546 7 50 0.0 0.0 0.00 0.00 0.00 92 1014.7
20260505015533 7 50 0.0 0.0 0.00 0.00 0.00 92 1014.7
20260505014518 7 50 0.0 0.0 0.00 0.00 0.00 92 1014.8
20260505013535 7 50 0.0 0.0 0.00 0.00 0.00 92 1014.8
20260505012506 8 50 0.0 0.0 0.00 0.00 0.00 92 1014.8
20260505011455 8 50 0.0 0.0 0.00 0.00 0.00 92 1014.9
20260505005326 8 50 0.0 1.6 0.00 0.00 0.00 92 1014.9
20260505004309 8 46 0.0 0.0 0.00 0.00 0.00 91 1014.9
20260505003243 8 46 0.0 0.0 0.00 0.00 0.00 91 1015.1
20260505002244 8 46 0.0 0.0 0.00 0.00 0.00 91 1015.2
20260505001225 8 46 0.0 0.0 0.00 0.00 0.00 91 1015.2
20260504235049 8 32 0.0 4.8 0.00 0.00 0.00 91 1015.3
20260504234023 8 46 0.0 0.0 0.00 0.00 0.00 90 1015.3
20260504233034 8 46 0.0 0.0 0.00 0.00 0.00 90 1015.2
20260504232002 8 46 0.0 0.0 0.00 0.00 0.00 89 1015.2
20260504231023 9 46 0.0 0.0 0.00 0.00 0.00 90 1015.1
20260504230002 9 46 0.0 1.6 0.00 0.00 0.00 89 1015.2
20260504224933 9 42 0.0 0.0 0.00 0.00 0.00 89 1015.2
20260504222812 10 42 0.0 0.0 0.00 0.00 0.00 88 1015.2
20260504221758 10 42 0.0 0.0 0.00 0.00 0.00 87 1015.3
20260504214520 10 42 0.0 0.0 0.00 0.00 0.00 87 1015.3
20260504213540 11 42 0.0 0.0 0.00 0.00 0.00 86 1015.4
20260504212522 11 42 0.0 0.0 0.00 0.00 0.00 85 1015.4
20260504211454 11 42 0.0 0.0 0.00 0.00 0.00 85 1015.3
20260504210438 11 42 0.0 0.0 0.00 0.00 0.00 85 1015.3
20260504205407 12 44 0.0 3.2 0.00 0.00 0.00 85 1015.3
20260504204430 12 43 0.0 0.0 0.00 0.05 0.00 85 1015.3
20260504203451 12 49 0.0 0.0 0.00 0.10 0.00 85 1015.1
20260504201328 12 49 0.0 0.0 0.00 0.28 0.00 83 1015.0
20260504200303 12 49 0.0 0.0 0.00 0.36 0.00 82 1014.9
20260504195314 12 49 0.0 0.0 0.00 0.53 0.00 81 1014.8
20260504194241 12 49 0.0 0.0 0.00 0.64 0.00 80 1014.7
20260504193221 12 49 0.0 0.0 0.00 0.64 0.00 80 1014.6
20260504192220 13 35 0.0 0.0 0.00 0.64 0.00 79 1014.5
20260504191212 13 35 0.0 0.0 0.00 0.64 0.00 78 1014.4
20260504190218 13 35 0.0 0.0 0.00 0.64 0.00 76 1014.4
20260504185231 14 35 0.0 0.0 0.00 0.64 0.00 75 1014.4
20260504184223 15 35 0.0 0.0 0.00 0.66 0.00 74 1014.3
20260504183221 15 34 0.0 3.2 0.00 0.66 0.00 74 1014.2
20260504182231 15 34 0.0 0.0 0.00 0.66 0.00 73 1014.1
20260504180059 16 27 1.6 4.8 0.00 0.74 0.00 71 1013.9
20260504175105 16 34 1.6 8.0 0.00 0.74 0.00 71 1013.9
20260504174046 16 32 1.6 8.0 0.00 0.74 0.00 72 1013.8
20260504173029 16 68 1.6 4.8 0.00 0.74 0.00 72 1013.9
20260504172048 16 67 1.6 4.8 0.00 0.74 0.00 71 1013.8
20260504150428 15 55 1.6 4.8 0.00 0.74 0.00 78 1014.5
20260504100132 12 37 1.6 6.4 0.00 0.74 0.00 92 1014.7
20260504090121 11 32 0.0 1.6 0.00 0.74 0.00 93 1014.5
20260504045800 10 47 0.0 0.0 0.00 0.74 0.00 95 1012.5
20260504044825 10 48 0.0 3.2 0.00 0.74 0.00 95 1012.5
20260504042721 10 41 0.0 0.0 0.00 0.74 0.00 95 1012.6
20260504041732 10 32 0.0 0.0 0.00 0.74 0.00 95 1012.5
20260504040738 10 30 0.0 0.0 0.00 0.74 0.00 95 1012.5
20260504035704 10 31 0.0 0.0 0.00 0.74 0.00 95 1012.3
20260504034634 10 31 0.0 0.0 0.00 0.74 0.00 95 1012.4
20260504033601 10 31 0.0 0.0 0.00 0.74 0.00 95 1012.3
20260504032616 10 31 0.0 0.0 0.00 0.74 0.00 95 1012.2